Tiempo cada hora Abhar

Hoy, 20 Octubre, Martes

Tiempo Temperatura Precipitaciones Viento Presión Humedad
00:00 +12°C° 0 mm 1 mps 621 mmHg 23%
01:00 +12°C° 0 mm 1 mps 621 mmHg 22%
02:00 +11°C° 0 mm 1 mps 621 mmHg 21%
03:00 +11°C° 0 mm 1 mps 621 mmHg 20%
04:00 +11°C° 0 mm 1 mps 621 mmHg 20%
05:00 +11°C° 0 mm 1 mps 621 mmHg 20%
06:00 +10°C° 0 mm 1 mps 622 mmHg 19%
07:00 +13°C° 0 mm 1 mps 623 mmHg 17%
08:00 +16°C° 0 mm 2 mps 624 mmHg 15%
09:00 +19°C° 0 mm 2 mps 626 mmHg 12%
10:00 +19°C° 0 mm 3 mps 626 mmHg 15%
11:00 +20°C° 0 mm 3 mps 626 mmHg 17%
12:00 +21°C° 0 mm 4 mps 626 mmHg 19%
13:00 +20°C° 0 mm 4 mps 626 mmHg 24%
14:00 +20°C° 0 mm 4 mps 625 mmHg 28%
15:00 +19°C° 0 mm 4 mps 625 mmHg 32%
16:00 +17°C° 0 mm 3 mps 625 mmHg 44%
17:00 +14°C° 0 mm 3 mps 624 mmHg 55%
18:00 +13°C° 0 mm 2 mps 623 mmHg 67%
19:00 +13°C° 0 mm 2 mps 623 mmHg 70%
20:00 +12°C° 0 mm 2 mps 623 mmHg 73%
21:00 +11°C° 0 mm 1 mps 623 mmHg 76%
22:00 +11°C° 0 mm 1 mps 623 mmHg 71%
23:00 +11°C° 0 mm 1 mps 623 mmHg 66%

Mañana, 21 Octubre, Miércoles

Tiempo Temperatura Precipitaciones Viento Presión Humedad
00:00 +11°C° 0 mm 1 mps 623 mmHg 61%
01:00 +10°C° 0 mm 1 mps 622 mmHg 60%
02:00 +10°C° 0 mm 1 mps 622 mmHg 60%
03:00 +9°C° 0 mm 1 mps 622 mmHg 59%
04:00 +9°C° 0 mm 1 mps 622 mmHg 61%
05:00 +9°C° 0 mm 1 mps 622 mmHg 64%
06:00 +8°C° 0 mm 1 mps 622 mmHg 67%
07:00 +10°C° 0 mm 1 mps 623 mmHg 61%
08:00 +12°C° 0 mm 2 mps 624 mmHg 55%
09:00 +15°C° 0 mm 2 mps 625 mmHg 48%
10:00 +14°C° 0 mm 3 mps 625 mmHg 45%
11:00 +16°C° 0 mm 3 mps 626 mmHg 42%
12:00 +17°C° 0 mm 3 mps 626 mmHg 40%
13:00 +17°C° 0 mm 3 mps 625 mmHg 42%
14:00 +15°C° 0 mm 4 mps 625 mmHg 44%
15:00 +15°C° 0 mm 4 mps 625 mmHg 46%
16:00 +14°C° 0 mm 4 mps 625 mmHg 56%
17:00 +12°C° 0 mm 4 mps 624 mmHg 66%
18:00 +11°C° 0 mm 4 mps 624 mmHg 76%
19:00 +10°C° 0 mm 3 mps 624 mmHg 79%
20:00 +10°C° 0 mm 3 mps 624 mmHg 81%
21:00 +9°C° 0 mm 2 mps 625 mmHg 84%
22:00 +9°C° 0 mm 2 mps 624 mmHg 85%
23:00 +9°C° 0 mm 2 mps 624 mmHg 87%

Pasado mañana, 22 Octubre, Jueves

Tiempo Temperatura Precipitaciones Viento Presión Humedad
00:00 +8°C° 0 mm 2 mps 624 mmHg 88%
01:00 +8°C° 0 mm 2 mps 624 mmHg 90%
02:00 +8°C° 0 mm 1 mps 624 mmHg 91%
03:00 +8°C° 0 mm 1 mps 623 mmHg 92%
04:00 +8°C° 0 mm 1 mps 623 mmHg 91%
05:00 +7°C° 0 mm 1 mps 623 mmHg 90%
06:00 +7°C° 0 mm 1 mps 623 mmHg 90%
07:00 +9°C° 0 mm 1 mps 624 mmHg 75%
08:00 +11°C° 0 mm 0 mps 625 mmHg 60%
09:00 +13°C° 0 mm 0 mps 625 mmHg 45%
10:00 +14°C° 0 mm 0 mps 626 mmHg 39%
11:00 +18°C° 0 mm 1 mps 626 mmHg 33%
12:00 +19°C° 0 mm 1 mps 626 mmHg 27%
13:00 +19°C° 0 mm 2 mps 625 mmHg 27%
14:00 +19°C° 0 mm 2 mps 625 mmHg 26%
15:00 +20°C° 0 mm 3 mps 625 mmHg 26%
16:00 +18°C° 0 mm 2 mps 625 mmHg 36%
17:00 +16°C° 0 mm 2 mps 624 mmHg 46%
18:00 +14°C° 0 mm 2 mps 624 mmHg 56%
19:00 +13°C° 0 mm 2 mps 623 mmHg 62%
20:00 +12°C° 0 mm 2 mps 623 mmHg 68%
21:00 +10°C° 0 mm 2 mps 623 mmHg 74%
22:00 +10°C° 0 mm 2 mps 623 mmHg 75%
23:00 +9°C° 0 mm 2 mps 623 mmHg 76%

23 Octubre, Viernes

Tiempo Temperatura Precipitaciones Viento Presión Humedad
00:00 +9°C° 0 mm 2 mps 623 mmHg 77%
01:00 +9°C° 0 mm 2 mps 622 mmHg 77%
02:00 +8°C° 0 mm 2 mps 622 mmHg 77%
03:00 +8°C° 0 mm 2 mps 622 mmHg 77%
04:00 +8°C° 0 mm 2 mps 622 mmHg 78%
05:00 +7°C° 0 mm 2 mps 622 mmHg 79%
06:00 +7°C° 0 mm 2 mps 622 mmHg 80%
07:00 +9°C° 0 mm 2 mps 623 mmHg 72%
08:00 +12°C° 0 mm 1 mps 624 mmHg 63%
09:00 +13°C° 0 mm 1 mps 625 mmHg 55%
10:00 +14°C° 0 mm 2 mps 625 mmHg 50%
11:00 +16°C° 0 mm 2 mps 626 mmHg 45%
12:00 +17°C° 0 mm 2 mps 626 mmHg 40%
13:00 +17°C° 0 mm 3 mps 626 mmHg 41%
14:00 +17°C° 0 mm 3 mps 625 mmHg 42%
15:00 +17°C° 0 mm 3 mps 625 mmHg 43%
16:00 +14°C° 0 mm 3 mps 625 mmHg 51%
17:00 +13°C° 0 mm 3 mps 625 mmHg 60%
18:00 +12°C° 0 mm 2 mps 624 mmHg 68%
19:00 +12°C° 0 mm 2 mps 624 mmHg 71%
20:00 +10°C° 0 mm 2 mps 624 mmHg 75%
21:00 +9°C° 0 mm 2 mps 625 mmHg 78%
22:00 +9°C° 0 mm 2 mps 624 mmHg 79%
23:00 +8°C° 0 mm 2 mps 624 mmHg 80%

24 Octubre, Sábado

Tiempo Temperatura Precipitaciones Viento Presión Humedad
00:00 +9°C° 0 mm 1 mps 624 mmHg 80%
01:00 +9°C° 0 mm 1 mps 624 mmHg 80%
02:00 +8°C° 0 mm 1 mps 624 mmHg 80%
03:00 +8°C° 0 mm 1 mps 624 mmHg 80%
04:00 +8°C° 0 mm 1 mps 623 mmHg 80%
05:00 +7°C° 0 mm 1 mps 623 mmHg 80%
06:00 +6°C° 0 mm 0 mps 623 mmHg 79%
07:00 +9°C° 0 mm 1 mps 624 mmHg 70%
08:00 +11°C° 0 mm 1 mps 625 mmHg 60%
09:00 +13°C° 0 mm 2 mps 626 mmHg 51%
10:00 +14°C° 0 mm 2 mps 626 mmHg 47%
11:00 +16°C° 0 mm 3 mps 626 mmHg 44%
12:00 +17°C° 0 mm 3 mps 626 mmHg 41%
13:00 +17°C° 0 mm 3 mps 626 mmHg 40%
14:00 +17°C° 0 mm 3 mps 625 mmHg 40%
15:00 +17°C° 0 mm 3 mps 625 mmHg 39%
16:00 +16°C° 0 mm 3 mps 625 mmHg 42%
17:00 +15°C° 0 mm 2 mps 625 mmHg 45%
18:00 +14°C° 0 mm 2 mps 624 mmHg 48%
19:00 +14°C° 0 mm 2 mps 624 mmHg 49%
20:00 +13°C° 0 mm 1 mps 624 mmHg 50%
21:00 +13°C° 0 mm 1 mps 624 mmHg 51%
22:00 +12°C° 0 mm 1 mps 624 mmHg 53%
23:00 +11°C° 0 mm 1 mps 623 mmHg 55%

25 Octubre, Domingo

Tiempo Temperatura Precipitaciones Viento Presión Humedad
00:00 +11°C° 0 mm 1 mps 623 mmHg 57%
01:00 +10°C° 0 mm 1 mps 623 mmHg 58%
02:00 +10°C° 0 mm 1 mps 622 mmHg 60%
03:00 +9°C° 0 mm 1 mps 622 mmHg 61%
04:00 +9°C° 0 mm 1 mps 622 mmHg 62%
05:00 +9°C° 0 mm 1 mps 622 mmHg 63%
06:00 +8°C° 0 mm 1 mps 622 mmHg 64%
07:00 +10°C° 0 mm 1 mps 623 mmHg 56%
08:00 +13°C° 0 mm 1 mps 623 mmHg 48%
09:00 +15°C° 0 mm 1 mps 624 mmHg 40%
10:00 +16°C° 0 mm 2 mps 624 mmHg 36%
11:00 +18°C° 0 mm 2 mps 625 mmHg 32%
12:00 +19°C° 0 mm 2 mps 625 mmHg 27%
13:00 +20°C° 0 mm 3 mps 624 mmHg 26%
14:00 +20°C° 0 mm 3 mps 624 mmHg 24%
15:00 +21°C° 0 mm 3 mps 624 mmHg 23%
16:00 +19°C° 0 mm 3 mps 623 mmHg 28%
17:00 +17°C° 0 mm 3 mps 623 mmHg 32%
18:00 +16°C° 0 mm 2 mps 622 mmHg 37%
19:00 +15°C° 0 mm 2 mps 622 mmHg 40%
20:00 +14°C° 0 mm 2 mps 622 mmHg 42%
21:00 +13°C° 0 mm 1 mps 622 mmHg 45%
22:00 +12°C° 0 mm 1 mps 621 mmHg 46%
23:00 +12°C° 0 mm 1 mps 621 mmHg 48%

26 Octubre, Lunes

Tiempo Temperatura Precipitaciones Viento Presión Humedad
00:00 +11°C° 0 mm 1 mps 621 mmHg 49%
01:00 +11°C° 0 mm 1 mps 620 mmHg 51%
02:00 +10°C° 0 mm 1 mps 620 mmHg 52%
03:00 +10°C° 0 mm 1 mps 620 mmHg 53%
04:00 +9°C° 0 mm 1 mps 620 mmHg 54%
05:00 +9°C° 0 mm 1 mps 620 mmHg 55%
06:00 +8°C° 0 mm 1 mps 619 mmHg 55%
07:00 +11°C° 0 mm 1 mps 621 mmHg 47%
08:00 +14°C° 0 mm 1 mps 622 mmHg 38%
09:00 +16°C° 0 mm 1 mps 623 mmHg 29%
10:00 +18°C° 0 mm 2 mps 623 mmHg 23%
11:00 +19°C° 0 mm 4 mps 624 mmHg 18%
12:00 +21°C° 0 mm 5 mps 624 mmHg 13%
13:00 +21°C° 0 mm 5 mps 624 mmHg 12%
14:00 +21°C° 0 mm 5 mps 623 mmHg 12%
15:00 +21°C° 0 mm 5 mps 623 mmHg 12%
16:00 +19°C° 0 mm 4 mps 623 mmHg 15%
17:00 +18°C° 0 mm 3 mps 622 mmHg 18%
18:00 +16°C° 0 mm 2 mps 622 mmHg 21%
19:00 +15°C° 0 mm 2 mps 622 mmHg 22%
20:00 +15°C° 0 mm 2 mps 622 mmHg 23%
21:00 +14°C° 0 mm 2 mps 622 mmHg 24%
22:00 +13°C° 0 mm 2 mps 621 mmHg 24%
23:00 +13°C° 0 mm 2 mps 621 mmHg 25%
Mostrar más

Necesitamos Su Consentimiento

Meteoprog y nuestros Proveedores de Servicios pueden almacenar y acceder a sus datos personales como cookies, identificadores de dispositivo u otras tecnologías similares de su dispositivo y procesar dichos datos para personalizar contenido y anuncios, además de ofrecer funciones de redes sociales y analizar el tráfico.

  • Almacenar y/o acceder a información en su dispositivo

    Se puede almacenar o acceder a cookies, identificadores de dispositivo u otra información de su dispositivo para los fines anteriormente indicados.

  • Anuncios y contenido personalizados, medición de anuncios y contenido, percepciones del público, y desarrollo de productos

    Los anuncios y el contenido pueden personalizarse en base a su perfil. Se pueden añadir más datos para personalizar mejor los anuncios y contenidos. Se puede medir el rendimiento de los anuncios y contenidos. Se puede obtener la percepción sobre el público que ha visto los anuncios y contenidos. Dichos datos pueden usarse para desarrollar o mejorar la experiencia del usuario, sistemas y software.

Al hacer clic en ‘Estoy De Acuerdo’ usted permitirá el uso de las cookies, identificadores de dispositivo, balizas web u otras tecnologías similares indicadas. Su configuración puede cambiarse desde el navegador de su dispositivo.

Para ciertos fines, los intereses legítimos pueden ser considerados por encima del consentimiento. Puede leer más sobre ello en nuestra Política de Privacidad y Cookies.